Tracking 25995 objects as of 20-Aug-2022
HD Live streaming from Space Station
objects crossing your sky now

CENTAURI-1

Track CENTAURI-1 now!
10-day predictions


NORAD ID: 43809
Int'l Code: 2018-099BD
Perigee: 572.3 km
Apogee: 594.8 km
Inclination: 97.6 °
Period: 96.2 minutes
Semi major axis: 6954 km
RCS: Unknown
Launch date: December 3, 2018
Source: Australia (AUS)
Launch site: AIR FORCE WESTERN TEST RANGE (AFWTR)
aabbcc
Your satellite tracking list
Your tracking list is empty




NASA's NSSDC Master Catalog

Two Line Element Set (TLE):
1 43809U 18099BD  22231.42449103  .00001238  00000-0  11258-3 0  9992
2 43809  97.6167 297.0679 0016200  60.6219 299.6618 14.96915581202199
Source of the keplerian elements: AFSPC